Location: Newark
(48.1500°N, 13.1167°E)
Time: 02:22:09
(UTC+00:00)

N. Korean satellite - Visible Passes

Search period start: 27 September 2021 00:00
Search period end: 07 October 2021 00:00
Orbit: 449 x 498 km, 97.3° (Epoch: 26 September)

Date Brightness Start Highest point End Pass type
(mag) Time Alt. Az. Time Alt. Az. Time Alt. Az.
27 Sep 7.9 04:09:31 10° NNE 04:12:57 44° E 04:16:24 10° S visible
28 Sep 9.4 03:42:11 10° NE 03:45:00 21° E 03:47:49 10° SE visible
29 Sep 10.2 03:16:02 10° ENE 03:16:56 11° E 03:17:50 10° ESE visible
30 Sep 7.3 04:19:10 10° NNE 04:22:43 59° E 04:26:17 10° S visible
01 Oct 8.9 03:51:39 10° NE 03:54:46 27° E 03:57:55 10° SSE visible
02 Oct 9.9 03:24:45 10° ENE 03:26:43 14° E 03:28:41 10° ESE visible
03 Oct 6.8 04:28:45 10° NNE 04:32:22 78° ESE 04:36:01 10° S visible
04 Oct 8.4 04:01:05 10° NNE 04:04:26 35° E 04:07:48 10° SSE visible
05 Oct 9.7 03:33:50 10° NE 03:36:23 18° E 03:38:55 10° SE visible
06 Oct 6.5 04:38:17 10° N 04:41:55 80° WNW 04:45:34 10° SSW visible
